COSMOS 1275 DEB, 12653

Orbit data source: Space-Track

COSMOS 1275 DEB, 12653 is space debris in LEO originally from a launch on Thu, 04 Jun 1981 UTC launched from the Plesetsk Missile And Space Complex (PKMTR). Debris objects in space refer to the collection of defunct objects orbiting the Earth. Examples of debris include non-operational satellites, rocket bodies, and fragments generated from explosions, collisions, or faulty payload assembly.

Loading next visibility...
Identifier
12653, 1981-053H
Orbit
LEO
Country
Flag of CISCIS
Related business
Manufacturer
Unknown
Mission
Spacecraft
Bus & Motor
Unknown
Mass
Unknown
Launch date (UTC)
1981-06-04 (44 years ago)
Launch vehicle
Unknown
Launch site
Plesetsk Missile And Space Complex (PKMTR)
Object type
Payload
Rocket body
Debris
Shape & HBR
Unknown shape, 0.6 m
Radar Cross Section
Medium (>0.1 m² and <1 m²)

Expand to show TLE details & history
Last TLE update: 8 hours ago

TLE from 8 hours ago
0 COSMOS 1275 DEB
1 12653U 81053H   25291.12686800  .00000886  00000-0  72555-3 0  9993
2 12653  82.9310 276.3391 0028523 268.9776 180.9511 13.88285716228767
Epoch: 2025-10-18T03:02Z
TLE epoch observation values (Epoch: 2025-10-18T03:02:41.395Z)
Latitude
82.96697°
Longitude
-66.81986°
Altitude
969.098 km
Speed
7.363 km/s
True Right ascension
00h 22m 51s
True Declination
82° 55' 35"
Sunlit
Object was in daylight at epoch
Visualization orbit readout
Latitude
Unknown
Longitude
Unknown
Altitude
Unknown
Speed
Unknown
Apparent Right ascension
Unknown
Apparent Declination
Unknown
Sunlit
N/A
Visualization observer readout
Local Sidereal Time
05:50:59
Azimuth
Unknown
Elevation
Unknown
Doppler factor
Unknown
Orbital elements
Apogee altitude
952.626 km
Perigee altitude
910.925 km
Semi-major axis
7,309.912 km
Eccentricity
0.00285
Inclination
82.931°
RAAN
276.3391°
Arg. of periapsis
268.9776°
True anomaly
180.94569°
Mean anomaly
180.9511°
Eccentric anomaly
180.9484°
Mean motion
3.47276 °/min
Orbital period
103.66 mins
BSTAR
0.00072555
Loading maneuver chart data...
Computing Atmospheric mass density...

Documentation

Showing up to 5 results
|